Year,Month,Day,Hour,Minute,Value (Times are PST for temperature in C)
2018,07,28,00,00,23.30
2018,07,28,00,01,23.30
2018,07,28,00,02,23.30
2018,07,28,00,03,23.30
2018,07,28,00,04,23.30
2018,07,28,00,05,23.30
2018,07,28,00,06,23.30
2018,07,28,00,07,23.30
2018,07,28,00,08,23.30
2018,07,28,00,09,23.30
2018,07,28,00,10,23.30
2018,07,28,00,11,23.30
2018,07,28,00,12,23.30
2018,07,28,00,13,23.30
2018,07,28,00,14,23.30
2018,07,28,00,15,23.30
2018,07,28,00,16,23.30
2018,07,28,00,17,23.30
2018,07,28,00,18,23.30
2018,07,28,00,19,23.30
2018,07,28,00,20,23.20
2018,07,28,00,21,23.20
2018,07,28,00,22,23.20
2018,07,28,00,23,23.20
2018,07,28,00,24,23.20
2018,07,28,00,25,23.20
2018,07,28,00,26,23.20
2018,07,28,00,27,23.10
2018,07,28,00,28,23.10
2018,07,28,00,29,23.10
2018,07,28,00,30,23.10
2018,07,28,00,31,23.10
2018,07,28,00,32,23.00
2018,07,28,00,33,23.00
2018,07,28,00,34,23.00
2018,07,28,00,35,22.90
2018,07,28,00,36,22.90
2018,07,28,00,37,22.90
2018,07,28,00,38,22.90
2018,07,28,00,39,22.90
2018,07,28,00,40,22.90
2018,07,28,00,41,22.90
2018,07,28,00,42,22.90
2018,07,28,00,43,22.80
2018,07,28,00,44,22.80
2018,07,28,00,45,22.80
2018,07,28,00,46,22.80
2018,07,28,00,47,22.70
2018,07,28,00,48,22.70
2018,07,28,00,49,22.60
2018,07,28,00,50,22.60
2018,07,28,00,51,22.60
2018,07,28,00,52,22.60
2018,07,28,00,53,22.60
2018,07,28,00,54,22.50
2018,07,28,00,55,22.50
2018,07,28,00,56,22.50
2018,07,28,00,57,22.50
2018,07,28,00,58,22.50
2018,07,28,00,59,22.50
2018,07,28,01,00,22.50
2018,07,28,01,01,22.50
2018,07,28,01,02,22.50
2018,07,28,01,03,22.40
2018,07,28,01,04,22.40
2018,07,28,01,05,22.40
2018,07,28,01,06,22.30
2018,07,28,01,07,22.30
2018,07,28,01,08,22.30
2018,07,28,01,09,22.30
2018,07,28,01,10,22.30
2018,07,28,01,11,22.30
2018,07,28,01,12,22.20
2018,07,28,01,13,22.20
2018,07,28,01,14,22.20
2018,07,28,01,15,22.20
2018,07,28,01,16,22.20
2018,07,28,01,17,22.10
2018,07,28,01,18,22.10
2018,07,28,01,19,22.00
2018,07,28,01,20,22.00
2018,07,28,01,21,21.90
2018,07,28,01,22,21.90
2018,07,28,01,23,21.80
2018,07,28,01,24,21.80
2018,07,28,01,25,21.80
2018,07,28,01,26,21.70
2018,07,28,01,27,21.70
2018,07,28,01,28,21.60
2018,07,28,01,29,21.50
2018,07,28,01,30,21.50
2018,07,28,01,31,21.40
2018,07,28,01,32,21.40
2018,07,28,01,33,21.30
2018,07,28,01,34,21.30
2018,07,28,01,35,21.30
2018,07,28,01,36,21.20
2018,07,28,01,37,21.20
2018,07,28,01,38,21.20
2018,07,28,01,39,21.20
2018,07,28,01,40,21.10
2018,07,28,01,41,21.10
2018,07,28,01,42,21.10
2018,07,28,01,43,21.10
2018,07,28,01,44,21.10
2018,07,28,01,45,21.10
2018,07,28,01,46,21.10
2018,07,28,01,47,21.10
2018,07,28,01,48,21.00
2018,07,28,01,49,21.10
2018,07,28,01,50,21.10
2018,07,28,01,51,21.10
2018,07,28,01,52,21.10
2018,07,28,01,53,21.10
2018,07,28,01,54,21.10
2018,07,28,01,55,21.10
2018,07,28,01,56,21.10
2018,07,28,01,57,21.10
2018,07,28,01,58,21.10
2018,07,28,01,59,21.10
2018,07,28,02,00,21.10
2018,07,28,02,01,21.10
2018,07,28,02,02,21.10
2018,07,28,02,03,21.10
2018,07,28,02,04,21.20
2018,07,28,02,05,21.20
2018,07,28,02,06,21.20
2018,07,28,02,07,21.30
2018,07,28,02,08,21.20
2018,07,28,02,09,21.20
2018,07,28,02,10,21.20
2018,07,28,02,11,21.20
2018,07,28,02,12,21.20
2018,07,28,02,13,21.20
2018,07,28,02,14,21.10
2018,07,28,02,15,21.10
2018,07,28,02,16,21.10
2018,07,28,02,17,21.00
2018,07,28,02,18,21.00
2018,07,28,02,19,20.90
2018,07,28,02,20,20.90
2018,07,28,02,21,20.90
2018,07,28,02,22,20.80
2018,07,28,02,23,20.80
2018,07,28,02,24,20.70
2018,07,28,02,25,20.70
2018,07,28,02,26,20.70
2018,07,28,02,27,20.70
2018,07,28,02,28,20.70
2018,07,28,02,29,20.60
2018,07,28,02,30,20.60
2018,07,28,02,31,20.60
2018,07,28,02,32,20.50
2018,07,28,02,33,20.50
2018,07,28,02,34,20.50
2018,07,28,02,35,20.40
2018,07,28,02,36,20.40
2018,07,28,02,37,20.40
2018,07,28,02,38,20.30
2018,07,28,02,39,20.30
2018,07,28,02,40,20.30
2018,07,28,02,41,20.30
2018,07,28,02,42,20.20
2018,07,28,02,43,20.20
2018,07,28,02,44,20.20
2018,07,28,02,45,20.20
2018,07,28,02,46,20.10
2018,07,28,02,47,20.10
2018,07,28,02,48,20.10
2018,07,28,02,49,20.00
2018,07,28,02,50,20.00
2018,07,28,02,51,19.90
2018,07,28,02,52,19.90
2018,07,28,02,53,19.90
2018,07,28,02,54,19.80
2018,07,28,02,55,19.80
2018,07,28,02,56,19.80
2018,07,28,02,57,19.70
2018,07,28,02,58,19.70
2018,07,28,02,59,19.70
2018,07,28,03,00,19.60
2018,07,28,03,01,19.60
2018,07,28,03,02,19.60
2018,07,28,03,03,19.60
2018,07,28,03,04,19.50
2018,07,28,03,05,19.50
2018,07,28,03,06,19.40
2018,07,28,03,07,19.40
2018,07,28,03,08,19.40
2018,07,28,03,09,19.40
2018,07,28,03,10,19.30
2018,07,28,03,11,19.30
2018,07,28,03,12,19.30
2018,07,28,03,13,19.30
2018,07,28,03,14,19.30
2018,07,28,03,15,19.30
2018,07,28,03,16,19.30
2018,07,28,03,17,19.20
2018,07,28,03,18,19.20
2018,07,28,03,19,19.20
2018,07,28,03,20,19.20
2018,07,28,03,21,19.20
2018,07,28,03,22,19.10
2018,07,28,03,23,19.10
2018,07,28,03,24,19.10
2018,07,28,03,25,19.10
2018,07,28,03,26,19.10
2018,07,28,03,27,19.10
2018,07,28,03,28,19.00
2018,07,28,03,29,19.00
2018,07,28,03,30,19.00
2018,07,28,03,31,19.00
2018,07,28,03,32,19.00
2018,07,28,03,33,19.00
2018,07,28,03,34,19.00
2018,07,28,03,35,19.00
2018,07,28,03,36,18.90
2018,07,28,03,37,18.90
2018,07,28,03,38,18.90
2018,07,28,03,39,18.90
2018,07,28,03,40,18.90
2018,07,28,03,41,18.90
2018,07,28,03,42,18.90
2018,07,28,03,43,18.80
2018,07,28,03,44,18.80
2018,07,28,03,45,18.80
2018,07,28,03,46,18.80
2018,07,28,03,47,18.80
2018,07,28,03,48,18.80
2018,07,28,03,49,18.70
2018,07,28,03,50,18.70
2018,07,28,03,51,18.70
2018,07,28,03,52,18.70
2018,07,28,03,53,18.70
2018,07,28,03,54,18.70
2018,07,28,03,55,18.70
2018,07,28,03,56,18.70
2018,07,28,03,57,18.70
2018,07,28,03,58,18.70
2018,07,28,03,59,18.60
2018,07,28,04,00,18.60
2018,07,28,04,01,18.60
2018,07,28,04,02,18.60
2018,07,28,04,03,18.60
2018,07,28,04,04,18.60
2018,07,28,04,05,18.50
2018,07,28,04,06,18.50
2018,07,28,04,07,18.50
2018,07,28,04,08,18.50
2018,07,28,04,09,18.50
2018,07,28,04,10,18.40
2018,07,28,04,11,18.40
2018,07,28,04,12,18.40
2018,07,28,04,13,18.40
2018,07,28,04,14,18.40
2018,07,28,04,15,18.40
2018,07,28,04,16,18.30
2018,07,28,04,17,18.30
2018,07,28,04,18,18.30
2018,07,28,04,19,18.30
2018,07,28,04,20,18.30
2018,07,28,04,21,18.30
2018,07,28,04,22,18.30
2018,07,28,04,23,18.30
2018,07,28,04,24,18.30
2018,07,28,04,25,18.20
2018,07,28,04,26,18.20
2018,07,28,04,27,18.20
2018,07,28,04,28,18.20
2018,07,28,04,29,18.20
2018,07,28,04,30,18.20
2018,07,28,04,31,18.10
2018,07,28,04,32,18.10
2018,07,28,04,33,18.10
2018,07,28,04,34,18.10
2018,07,28,04,35,18.10
2018,07,28,04,36,18.00
2018,07,28,04,37,18.00
2018,07,28,04,38,18.00
2018,07,28,04,39,17.90
2018,07,28,04,40,17.90
2018,07,28,04,41,17.90
2018,07,28,04,42,17.90
2018,07,28,04,43,17.90
2018,07,28,04,44,17.90
2018,07,28,04,45,17.90
2018,07,28,04,46,17.90
2018,07,28,04,47,17.90
2018,07,28,04,48,17.90
2018,07,28,04,49,17.80
2018,07,28,04,50,17.80
2018,07,28,04,51,17.80
2018,07,28,04,52,17.80
2018,07,28,04,53,17.80
2018,07,28,04,54,17.70
2018,07,28,04,55,17.70
2018,07,28,04,56,17.70
2018,07,28,04,57,17.70
2018,07,28,04,58,17.70
2018,07,28,04,59,17.70
2018,07,28,05,00,17.70
2018,07,28,05,01,17.70
2018,07,28,05,02,17.60
2018,07,28,05,03,17.60
2018,07,28,05,04,17.60
2018,07,28,05,05,17.60
2018,07,28,05,06,17.60
2018,07,28,05,07,17.60
2018,07,28,05,08,17.60
2018,07,28,05,09,17.60
2018,07,28,05,10,17.60
2018,07,28,05,11,17.60
2018,07,28,05,12,17.60
2018,07,28,05,13,17.60
2018,07,28,05,14,17.60
2018,07,28,05,15,17.50
2018,07,28,05,16,17.50
2018,07,28,05,17,17.50
2018,07,28,05,18,17.50
2018,07,28,05,19,17.40
2018,07,28,05,20,17.40
2018,07,28,05,21,17.40
2018,07,28,05,22,17.40
2018,07,28,05,23,17.40
2018,07,28,05,24,17.40
2018,07,28,05,25,17.40
2018,07,28,05,26,17.30
2018,07,28,05,27,17.30
2018,07,28,05,28,17.30
2018,07,28,05,29,17.30
2018,07,28,05,30,17.30
2018,07,28,05,31,17.30
2018,07,28,05,32,17.30
2018,07,28,05,33,17.30
2018,07,28,05,34,17.30
2018,07,28,05,35,17.20
2018,07,28,05,36,17.20
2018,07,28,05,37,17.20
2018,07,28,05,38,17.20
2018,07,28,05,39,17.20
2018,07,28,05,40,17.20
2018,07,28,05,41,17.20
2018,07,28,05,42,17.20
2018,07,28,05,43,17.20
2018,07,28,05,44,17.20
2018,07,28,05,45,17.20
2018,07,28,05,46,17.10
2018,07,28,05,47,17.10
2018,07,28,05,48,17.10
2018,07,28,05,49,17.10
2018,07,28,05,50,17.10
2018,07,28,05,51,17.10
2018,07,28,05,52,17.10
2018,07,28,05,53,17.10
2018,07,28,05,54,17.10
2018,07,28,05,55,17.10
2018,07,28,05,56,17.10
2018,07,28,05,57,17.00
2018,07,28,05,58,17.00
2018,07,28,05,59,17.00
2018,07,28,06,00,17.00
2018,07,28,06,01,17.00
2018,07,28,06,02,17.00
2018,07,28,06,03,17.00
2018,07,28,06,04,17.00
2018,07,28,06,05,17.00
2018,07,28,06,06,17.00
2018,07,28,06,07,17.00
2018,07,28,06,08,17.00
2018,07,28,06,09,17.00
2018,07,28,06,10,16.90
2018,07,28,06,11,16.90
2018,07,28,06,12,16.90
2018,07,28,06,13,16.90
2018,07,28,06,14,16.90
2018,07,28,06,15,16.90
2018,07,28,06,16,16.90
2018,07,28,06,17,16.90
2018,07,28,06,18,16.90
2018,07,28,06,19,16.90
2018,07,28,06,20,16.90
2018,07,28,06,21,16.90
2018,07,28,06,22,16.90
2018,07,28,06,23,16.90
2018,07,28,06,24,16.90
2018,07,28,06,25,17.00
2018,07,28,06,26,17.00
2018,07,28,06,27,17.00
2018,07,28,06,28,17.00
2018,07,28,06,29,17.00
2018,07,28,06,30,17.00
2018,07,28,06,31,17.00
2018,07,28,06,32,17.00
2018,07,28,06,33,17.00
2018,07,28,06,34,17.00
2018,07,28,06,35,17.10
2018,07,28,06,36,17.10
2018,07,28,06,37,17.10
2018,07,28,06,38,17.10
2018,07,28,06,39,17.10
2018,07,28,06,40,17.10
2018,07,28,06,41,17.10
2018,07,28,06,42,17.10
2018,07,28,06,43,17.10
2018,07,28,06,44,17.10
2018,07,28,06,45,17.20
2018,07,28,06,46,17.20
2018,07,28,06,47,17.20
2018,07,28,06,48,17.20
2018,07,28,06,49,17.20
2018,07,28,06,50,17.20
2018,07,28,06,51,17.20
2018,07,28,06,52,17.30
2018,07,28,06,53,17.30
2018,07,28,06,54,17.30
2018,07,28,06,55,17.30
2018,07,28,06,56,17.40
2018,07,28,06,57,17.40
2018,07,28,06,58,17.40
2018,07,28,06,59,17.40
2018,07,28,07,00,17.50
2018,07,28,07,01,17.50
2018,07,28,07,02,17.50
2018,07,28,07,03,17.60
2018,07,28,07,04,17.60
2018,07,28,07,05,17.60
2018,07,28,07,06,17.60
2018,07,28,07,07,17.70
2018,07,28,07,08,17.70
2018,07,28,07,09,17.70
2018,07,28,07,10,17.70
2018,07,28,07,11,17.80
2018,07,28,07,12,17.80
2018,07,28,07,13,17.80
2018,07,28,07,14,17.80
2018,07,28,07,15,17.80
2018,07,28,07,16,17.80
2018,07,28,07,17,17.90
2018,07,28,07,18,17.90
2018,07,28,07,19,17.90
2018,07,28,07,20,17.90
2018,07,28,07,21,17.90
2018,07,28,07,22,17.90
2018,07,28,07,23,17.90
2018,07,28,07,24,17.90
2018,07,28,07,25,18.00
2018,07,28,07,26,18.00
2018,07,28,07,27,18.00
2018,07,28,07,28,18.00
2018,07,28,07,29,18.10
2018,07,28,07,30,18.10
2018,07,28,07,31,18.10
2018,07,28,07,32,18.10
2018,07,28,07,33,18.10
2018,07,28,07,34,18.20
2018,07,28,07,35,18.20
2018,07,28,07,36,18.20
2018,07,28,07,37,18.30
2018,07,28,07,38,18.30
2018,07,28,07,39,18.30
2018,07,28,07,40,18.30
2018,07,28,07,41,18.40
2018,07,28,07,42,18.40
2018,07,28,07,43,18.50
2018,07,28,07,44,18.50
2018,07,28,07,45,18.60
2018,07,28,07,46,18.60
2018,07,28,07,47,18.60
2018,07,28,07,48,18.70
2018,07,28,07,49,18.70
2018,07,28,07,50,18.70
2018,07,28,07,51,18.70
2018,07,28,07,52,18.70
2018,07,28,07,53,18.80
2018,07,28,07,54,18.80
2018,07,28,07,55,18.80
2018,07,28,07,56,18.90
2018,07,28,07,57,18.90
2018,07,28,07,58,19.00
2018,07,28,07,59,19.00
2018,07,28,08,00,19.10
2018,07,28,08,01,19.10
2018,07,28,08,02,19.20
2018,07,28,08,03,19.20
2018,07,28,08,04,19.30
2018,07,28,08,05,19.30
2018,07,28,08,06,19.30
2018,07,28,08,07,19.30
2018,07,28,08,08,19.40
2018,07,28,08,09,19.40
2018,07,28,08,10,19.40
2018,07,28,08,11,19.50
2018,07,28,08,12,19.60
2018,07,28,08,13,19.60
2018,07,28,08,14,19.70
2018,07,28,08,15,19.70
2018,07,28,08,16,19.80
2018,07,28,08,17,19.80
2018,07,28,08,18,19.90
2018,07,28,08,19,20.00
2018,07,28,08,20,20.10
2018,07,28,08,21,20.20
2018,07,28,08,22,20.20
2018,07,28,08,23,20.30
2018,07,28,08,24,20.30
2018,07,28,08,25,20.40
2018,07,28,08,26,20.40
2018,07,28,08,27,20.40
2018,07,28,08,28,20.50
2018,07,28,08,29,20.50
2018,07,28,08,30,20.50
2018,07,28,08,31,20.60
2018,07,28,08,32,20.60
2018,07,28,08,33,20.60
2018,07,28,08,34,20.70
2018,07,28,08,35,20.70
2018,07,28,08,36,20.70
2018,07,28,08,37,20.70
2018,07,28,08,38,20.80
2018,07,28,08,39,20.80
2018,07,28,08,40,20.80
2018,07,28,08,41,20.90
2018,07,28,08,42,20.90
2018,07,28,08,43,20.90
2018,07,28,08,44,21.00
2018,07,28,08,45,21.00
2018,07,28,08,46,21.10
2018,07,28,08,47,21.10
2018,07,28,08,48,21.20
2018,07,28,08,49,21.20
2018,07,28,08,50,21.20
2018,07,28,08,51,21.20
2018,07,28,08,52,21.30
2018,07,28,08,53,21.30
2018,07,28,08,54,21.40
2018,07,28,08,55,21.40
2018,07,28,08,56,21.40
2018,07,28,08,57,21.40
2018,07,28,08,58,21.40
2018,07,28,08,59,21.50
2018,07,28,09,00,21.50
2018,07,28,09,01,21.60
2018,07,28,09,02,21.60
2018,07,28,09,03,21.60
2018,07,28,09,04,21.60
2018,07,28,09,05,21.70
2018,07,28,09,06,21.70
2018,07,28,09,07,21.80
2018,07,28,09,08,21.90
2018,07,28,09,09,21.90
2018,07,28,09,10,21.90
2018,07,28,09,11,22.00
2018,07,28,09,12,22.00
2018,07,28,09,13,22.00
2018,07,28,09,14,22.10
2018,07,28,09,15,22.10
2018,07,28,09,16,22.20
2018,07,28,09,17,22.20
2018,07,28,09,18,22.30
2018,07,28,09,19,22.40
2018,07,28,09,20,22.40
2018,07,28,09,21,22.40
2018,07,28,09,22,22.50
2018,07,28,09,23,22.50
2018,07,28,09,24,22.50
2018,07,28,09,25,22.50
2018,07,28,09,26,22.50
2018,07,28,09,27,22.50
2018,07,28,09,28,22.40
2018,07,28,09,29,22.40
2018,07,28,09,30,22.50
2018,07,28,09,31,22.50
2018,07,28,09,32,22.60
2018,07,28,09,33,22.70
2018,07,28,09,34,22.70
2018,07,28,09,35,22.80
2018,07,28,09,36,22.80
2018,07,28,09,37,22.80
2018,07,28,09,38,22.80
2018,07,28,09,39,22.90
2018,07,28,09,40,23.00
2018,07,28,09,41,23.00
2018,07,28,09,42,23.10
2018,07,28,09,43,23.10
2018,07,28,09,44,23.10
2018,07,28,09,45,23.10
2018,07,28,09,46,23.20
2018,07,28,09,47,23.20
2018,07,28,09,48,23.20
2018,07,28,09,49,23.30
2018,07,28,09,50,23.30
2018,07,28,09,51,23.40
2018,07,28,09,52,23.40
2018,07,28,09,53,23.50
2018,07,28,09,54,23.50
2018,07,28,09,55,23.50
2018,07,28,09,56,23.60
2018,07,28,09,57,23.60
2018,07,28,09,58,23.70
2018,07,28,09,59,23.80
2018,07,28,10,00,23.90
2018,07,28,10,01,24.00
2018,07,28,10,02,24.00
2018,07,28,10,03,24.10
2018,07,28,10,04,24.20
2018,07,28,10,05,24.20
2018,07,28,10,06,24.30
2018,07,28,10,07,24.30
2018,07,28,10,08,24.30
2018,07,28,10,09,24.30
2018,07,28,10,10,24.30
2018,07,28,10,11,24.30
2018,07,28,10,12,24.30
2018,07,28,10,13,24.30
2018,07,28,10,14,24.30
2018,07,28,10,15,24.40
2018,07,28,10,16,24.40
2018,07,28,10,17,24.40
2018,07,28,10,18,24.40
2018,07,28,10,19,24.40
2018,07,28,10,20,24.50
2018,07,28,10,21,24.60
2018,07,28,10,22,24.60
2018,07,28,10,23,24.60
2018,07,28,10,24,24.70
2018,07,28,10,25,24.60
2018,07,28,10,26,24.60
2018,07,28,10,27,24.60
2018,07,28,10,28,24.60
2018,07,28,10,29,24.70
2018,07,28,10,30,24.70
2018,07,28,10,31,24.70
2018,07,28,10,32,24.70
2018,07,28,10,33,24.70
2018,07,28,10,34,24.70
2018,07,28,10,35,24.70
2018,07,28,10,36,24.70
2018,07,28,10,37,24.70
2018,07,28,10,38,24.70
2018,07,28,10,39,24.80
2018,07,28,10,40,24.80
2018,07,28,10,41,24.80
2018,07,28,10,42,24.80
2018,07,28,10,43,24.80
2018,07,28,10,44,24.70
2018,07,28,10,45,24.70
2018,07,28,10,46,24.60
2018,07,28,10,47,24.60
2018,07,28,10,48,24.50
2018,07,28,10,49,24.50
2018,07,28,10,50,24.60
2018,07,28,10,51,24.60
2018,07,28,10,52,24.60
2018,07,28,10,53,24.60
2018,07,28,10,54,24.70
2018,07,28,10,55,24.80
2018,07,28,10,56,24.80
2018,07,28,10,57,24.90
2018,07,28,10,58,25.00
2018,07,28,10,59,25.10
2018,07,28,11,00,25.10
2018,07,28,11,01,25.20
2018,07,28,11,02,25.20
2018,07,28,11,03,25.30
2018,07,28,11,04,25.30
2018,07,28,11,05,25.30
2018,07,28,11,06,25.20
2018,07,28,11,07,25.10
2018,07,28,11,08,25.10
2018,07,28,11,09,25.10
2018,07,28,11,10,25.10
2018,07,28,11,11,25.10
2018,07,28,11,12,25.10
2018,07,28,11,13,25.10
2018,07,28,11,14,25.20
2018,07,28,11,15,25.30
2018,07,28,11,16,25.30
2018,07,28,11,17,25.40
2018,07,28,11,18,25.50
2018,07,28,11,19,25.60
2018,07,28,11,20,25.60
2018,07,28,11,21,25.60
2018,07,28,11,22,25.60
2018,07,28,11,23,25.60
2018,07,28,11,24,25.60
2018,07,28,11,25,25.60
2018,07,28,11,26,25.60
2018,07,28,11,27,25.70
2018,07,28,11,28,25.70
2018,07,28,11,29,25.70
2018,07,28,11,30,25.60
2018,07,28,11,31,25.40
2018,07,28,11,32,25.20
2018,07,28,11,33,25.20
2018,07,28,11,34,25.10
2018,07,28,11,35,25.10
2018,07,28,11,36,25.10
2018,07,28,11,37,25.00
2018,07,28,11,38,25.00
2018,07,28,11,39,25.00
2018,07,28,11,40,25.10
2018,07,28,11,41,25.10
2018,07,28,11,42,25.20
2018,07,28,11,43,25.20
2018,07,28,11,44,25.20
2018,07,28,11,45,25.30
2018,07,28,11,46,25.40
2018,07,28,11,47,25.50
2018,07,28,11,48,25.60
2018,07,28,11,49,25.70
2018,07,28,11,50,25.80
2018,07,28,11,51,25.90
2018,07,28,11,52,26.00
2018,07,28,11,53,26.10
2018,07,28,11,54,26.10
2018,07,28,11,55,26.10
2018,07,28,11,56,26.10
2018,07,28,11,57,26.00
2018,07,28,11,58,25.90
2018,07,28,11,59,25.90
2018,07,28,12,00,26.00
2018,07,28,12,01,26.10
2018,07,28,12,02,26.20
2018,07,28,12,03,26.30
2018,07,28,12,04,26.40
2018,07,28,12,05,26.50
2018,07,28,12,06,26.40
2018,07,28,12,07,26.50
2018,07,28,12,08,26.50
2018,07,28,12,09,26.60
2018,07,28,12,10,26.70
2018,07,28,12,11,26.70
2018,07,28,12,12,26.80
2018,07,28,12,13,26.80
2018,07,28,12,14,26.80
2018,07,28,12,15,26.80
2018,07,28,12,16,26.80
2018,07,28,12,17,26.80
2018,07,28,12,18,26.70
2018,07,28,12,19,26.70
2018,07,28,12,20,26.60
2018,07,28,12,21,26.50
2018,07,28,12,22,26.40
2018,07,28,12,23,26.40
2018,07,28,12,24,26.40
2018,07,28,12,25,26.40
2018,07,28,12,26,26.30
2018,07,28,12,27,26.30
2018,07,28,12,28,26.30
2018,07,28,12,29,26.30
2018,07,28,12,30,26.30
2018,07,28,12,31,26.30
2018,07,28,12,32,26.30
2018,07,28,12,33,26.30
2018,07,28,12,34,26.40
2018,07,28,12,35,26.50
2018,07,28,12,36,26.70
2018,07,28,12,37,26.80
2018,07,28,12,38,26.80
2018,07,28,12,39,26.80
2018,07,28,12,40,26.90
2018,07,28,12,41,27.00
2018,07,28,12,42,27.10
2018,07,28,12,43,27.10
2018,07,28,12,44,27.20
2018,07,28,12,45,27.30
2018,07,28,12,46,27.50
2018,07,28,12,47,27.60
2018,07,28,12,48,27.70
2018,07,28,12,49,27.70
2018,07,28,12,50,27.70
2018,07,28,12,51,27.60
2018,07,28,12,52,27.50
2018,07,28,12,53,27.40
2018,07,28,12,54,27.30
2018,07,28,12,55,27.30
2018,07,28,12,56,27.20
2018,07,28,12,57,27.20
2018,07,28,12,58,27.20
2018,07,28,12,59,27.20
2018,07,28,13,00,27.10
2018,07,28,13,01,27.10
2018,07,28,13,02,27.10
2018,07,28,13,03,27.10
2018,07,28,13,04,27.10
2018,07,28,13,05,27.20
2018,07,28,13,06,27.20
2018,07,28,13,07,27.30
2018,07,28,13,08,27.30
2018,07,28,13,09,27.30
2018,07,28,13,10,27.30
2018,07,28,13,11,27.30
2018,07,28,13,12,27.40
2018,07,28,13,13,27.40
2018,07,28,13,14,27.50
2018,07,28,13,15,27.40
2018,07,28,13,16,27.40
2018,07,28,13,17,27.50
2018,07,28,13,18,27.60
2018,07,28,13,19,27.70
2018,07,28,13,20,27.80
2018,07,28,13,21,27.90
2018,07,28,13,22,28.00
2018,07,28,13,23,28.10
2018,07,28,13,24,28.20
2018,07,28,13,25,28.20
2018,07,28,13,26,28.20
2018,07,28,13,27,28.00
2018,07,28,13,28,27.90
2018,07,28,13,29,27.70
2018,07,28,13,30,27.60
2018,07,28,13,31,27.60
2018,07,28,13,32,27.60
2018,07,28,13,33,27.70
2018,07,28,13,34,27.80
2018,07,28,13,35,27.90
2018,07,28,13,36,28.00
2018,07,28,13,37,28.00
2018,07,28,13,38,27.90
2018,07,28,13,39,27.70
2018,07,28,13,40,27.40
2018,07,28,13,41,27.00
2018,07,28,13,42,26.80
2018,07,28,13,43,26.70
2018,07,28,13,44,26.60
2018,07,28,13,45,26.50
2018,07,28,13,46,26.50
2018,07,28,13,47,26.50
2018,07,28,13,48,26.50
2018,07,28,13,49,26.40
2018,07,28,13,50,26.30
2018,07,28,13,51,26.30
2018,07,28,13,52,26.20
2018,07,28,13,53,26.20
2018,07,28,13,54,26.30
2018,07,28,13,55,26.40
2018,07,28,13,56,26.50
2018,07,28,13,57,26.60
2018,07,28,13,58,26.70
2018,07,28,13,59,26.70
2018,07,28,14,00,26.80
2018,07,28,14,01,26.80
2018,07,28,14,02,26.90
2018,07,28,14,03,26.90
2018,07,28,14,04,26.90
2018,07,28,14,05,26.90
2018,07,28,14,06,26.90
2018,07,28,14,07,26.80
2018,07,28,14,08,26.70
2018,07,28,14,09,26.60
2018,07,28,14,10,26.60
2018,07,28,14,11,26.60
2018,07,28,14,12,26.70
2018,07,28,14,13,26.80
2018,07,28,14,14,26.80
2018,07,28,14,15,26.90
2018,07,28,14,16,27.00
2018,07,28,14,17,27.10
2018,07,28,14,18,27.10
2018,07,28,14,19,27.10
2018,07,28,14,20,27.10
2018,07,28,14,21,27.10
2018,07,28,14,22,27.20
2018,07,28,14,23,27.20
2018,07,28,14,24,27.30
2018,07,28,14,25,27.30
2018,07,28,14,26,27.40
2018,07,28,14,27,27.40
2018,07,28,14,28,27.50
2018,07,28,14,29,27.60
2018,07,28,14,30,27.70
2018,07,28,14,31,27.70
2018,07,28,14,32,27.70
2018,07,28,14,33,27.80
2018,07,28,14,34,27.80
2018,07,28,14,35,27.80
2018,07,28,14,36,27.80
2018,07,28,14,37,27.70
2018,07,28,14,38,27.70
2018,07,28,14,39,27.60
2018,07,28,14,40,27.50
2018,07,28,14,41,27.40
2018,07,28,14,42,27.30
2018,07,28,14,43,27.20
2018,07,28,14,44,27.10
2018,07,28,14,45,27.10
2018,07,28,14,46,27.10
2018,07,28,14,47,27.10
2018,07,28,14,48,27.10
2018,07,28,14,49,27.00
2018,07,28,14,50,27.00
2018,07,28,14,51,27.00
2018,07,28,14,52,27.10
2018,07,28,14,53,27.10
2018,07,28,14,54,27.30
2018,07,28,14,55,27.30
2018,07,28,14,56,27.40
2018,07,28,14,57,27.40
2018,07,28,14,58,27.50
2018,07,28,14,59,27.50
2018,07,28,15,00,27.60
2018,07,28,15,01,27.70
2018,07,28,15,02,27.80
2018,07,28,15,03,27.90
2018,07,28,15,04,28.00
2018,07,28,15,05,28.00
2018,07,28,15,06,28.10
2018,07,28,15,07,28.20
2018,07,28,15,08,28.20
2018,07,28,15,09,28.30
2018,07,28,15,10,28.40
2018,07,28,15,11,28.50
2018,07,28,15,12,28.50
2018,07,28,15,13,28.50
2018,07,28,15,14,28.60
2018,07,28,15,15,28.70
2018,07,28,15,16,28.80
2018,07,28,15,17,28.90
2018,07,28,15,18,28.90
2018,07,28,15,19,28.80
2018,07,28,15,20,28.80
2018,07,28,15,21,28.70
2018,07,28,15,22,28.70
2018,07,28,15,23,28.80
2018,07,28,15,24,28.80
2018,07,28,15,25,28.90
2018,07,28,15,26,28.90
2018,07,28,15,27,28.90
2018,07,28,15,28,28.90
2018,07,28,15,29,28.80
2018,07,28,15,30,28.60
2018,07,28,15,31,28.60
2018,07,28,15,32,28.50
2018,07,28,15,33,28.50
2018,07,28,15,34,28.50
2018,07,28,15,35,28.50
2018,07,28,15,36,28.40
2018,07,28,15,37,28.40
2018,07,28,15,38,28.30
2018,07,28,15,39,28.20
2018,07,28,15,40,28.10
2018,07,28,15,41,28.00
2018,07,28,15,42,27.90
2018,07,28,15,43,27.80
2018,07,28,15,44,27.70
2018,07,28,15,45,27.60
2018,07,28,15,46,27.60
2018,07,28,15,47,27.70
2018,07,28,15,48,27.80
2018,07,28,15,49,27.80
2018,07,28,15,50,27.90
2018,07,28,15,51,27.90
2018,07,28,15,52,27.90
2018,07,28,15,53,27.90
2018,07,28,15,54,27.80
2018,07,28,15,55,27.80
2018,07,28,15,56,27.80
2018,07,28,15,57,27.80
2018,07,28,15,58,27.70
2018,07,28,15,59,27.70
2018,07,28,16,00,27.60
2018,07,28,16,01,27.50
2018,07,28,16,02,27.50
2018,07,28,16,03,27.40
2018,07,28,16,04,27.40
2018,07,28,16,05,27.50
2018,07,28,16,06,27.50
2018,07,28,16,07,27.60
2018,07,28,16,08,27.60
2018,07,28,16,09,27.70
2018,07,28,16,10,27.80
2018,07,28,16,11,27.80
2018,07,28,16,12,27.80
2018,07,28,16,13,27.80
2018,07,28,16,14,27.80
2018,07,28,16,15,27.80
2018,07,28,16,16,27.80
2018,07,28,16,17,27.80
2018,07,28,16,18,27.80
2018,07,28,16,19,27.80
2018,07,28,16,20,27.80
2018,07,28,16,21,27.90
2018,07,28,16,22,28.00
2018,07,28,16,23,28.10
2018,07,28,16,24,28.20
2018,07,28,16,25,28.30
2018,07,28,16,26,28.30
2018,07,28,16,27,28.30
2018,07,28,16,28,28.30
2018,07,28,16,29,28.20
2018,07,28,16,30,28.00
2018,07,28,16,31,27.90
2018,07,28,16,32,27.80
2018,07,28,16,33,27.80
2018,07,28,16,34,27.70
2018,07,28,16,35,27.60
2018,07,28,16,36,27.60
2018,07,28,16,37,27.60
2018,07,28,16,38,27.60
2018,07,28,16,39,27.70
2018,07,28,16,40,27.70
2018,07,28,16,41,27.70
2018,07,28,16,42,27.70
2018,07,28,16,43,27.70
2018,07,28,16,44,27.70
2018,07,28,16,45,27.70
2018,07,28,16,46,27.70
2018,07,28,16,47,27.70
2018,07,28,16,48,27.80
2018,07,28,16,49,27.80
2018,07,28,16,50,27.90
2018,07,28,16,51,28.00
2018,07,28,16,52,28.00
2018,07,28,16,53,28.10
2018,07,28,16,54,28.10
2018,07,28,16,55,28.10
2018,07,28,16,56,28.00
2018,07,28,16,57,27.90
2018,07,28,16,58,27.90
2018,07,28,16,59,27.80
2018,07,28,17,00,27.80
2018,07,28,17,01,27.80
2018,07,28,17,02,27.80
2018,07,28,17,03,27.80
2018,07,28,17,04,27.80
2018,07,28,17,05,27.80
2018,07,28,17,06,27.80
2018,07,28,17,07,27.80
2018,07,28,17,08,27.80
2018,07,28,17,09,27.80
2018,07,28,17,10,27.70
2018,07,28,17,11,27.70
2018,07,28,17,12,27.70
2018,07,28,17,13,27.70
2018,07,28,17,14,27.70
2018,07,28,17,15,27.70
2018,07,28,17,16,27.70
2018,07,28,17,17,27.80
2018,07,28,17,18,27.80
2018,07,28,17,19,27.80